Theta_e
300 301 303 303 302 303 304 307 310 312 313 314 315 316 321 326 328 326 325 325 325 325 325 325 325 325 328 328 327 325 327 330 331 330 330 328 328 330 325 323 326 330 331 332 339
300 301 302 303 303 302 303 305 309 310 313 314 316 316 319 323 326 326 326 325 325 325 325 325 325 325 327 327 326 324 328 329 328 327 327 328 329 330 326 329 330 332 331 337 339
300 301 301 303 304 304 301 303 305 308 311 314 316 320 324 323 324 324 323 326 326 325 324 324 325 325 327 327 327 325 327 326 327 328 328 328 329 330 326 327 330 333 335 337 339
300 301 302 301 303 304 302 301 304 306 309 312 316 318 323 324 326 324 324 325 326 326 324 324 324 326 327 328 327 325 326 325 326 327 328 326 329 328 327 328 330 328 333 334 338
304 300 302 302 303 304 304 300 301 304 307 310 313 317 319 321 322 322 325 324 325 324 324 323 323 325 328 327 326 324 324 325 325 326 328 328 328 327 329 329 330 329 333 332 336
305 303 300 301 302 303 303 302 300 302 305 308 311 316 316 321 321 322 323 324 325 324 324 322 322 324 326 327 326 324 324 324 325 326 327 328 327 329 328 330 330 331 332 332 334
303 304 300 300 301 303 303 300 300 302 302 307 310 315 316 319 320 322 322 324 324 321 320 323 322 324 324 326 325 324 324 324 325 326 326 328 328 327 329 329 330 332 333 333 333
304 302 302 300 301 303 302 299 301 303 304 305 308 312 315 317 319 321 322 322 321 320 321 321 321 322 321 323 325 324 324 328 325 324 324 326 330 326 328 330 329 329 332 333 333
305 303 302 300 301 303 301 299 300 304 306 307 309 310 314 316 317 320 321 321 320 320 322 321 321 322 323 324 327 326 327 327 325 322 323 325 328 324 328 330 330 330 329 330 330
305 305 303 301 301 302 298 298 301 305 307 307 307 309 312 314 316 316 321 321 321 321 321 323 323 323 323 324 327 327 328 325 323 320 322 323 323 321 324 327 327 329 330 330 330
304 305 303 301 301 301 298 300 302 304 305 306 308 307 313 313 315 316 321 321 321 322 323 321 322 322 323 322 321 326 327 325 321 319 321 323 321 320 322 323 323 324 329 330 330
303 305 304 300 301 301 298 303 305 306 306 307 307 309 309 312 314 316 319 321 323 323 321 321 323 320 321 323 325 325 327 326 323 319 319 317 320 320 320 321 322 322 322 323 323
303 304 304 300 301 300 298 300 301 303 306 306 306 307 308 313 314 317 318 320 321 322 321 322 322 319 323 324 324 326 327 325 324 320 319 321 323 320 318 320 320 321 321 320 319
303 305 303 301 301 301 302 303 301 304 303 308 308 310 311 313 312 314 315 319 319 321 322 322 317 320 322 323 322 323 323 323 323 322 325 321 330 320 320 319 317 319 320 319 319
303 304 301 301 303 303 302 303 302 304 305 308 311 310 312 313 313 317 315 318 319 321 320 319 318 320 323 323 320 322 321 322 322 322 320 320 320 318 317 316 316 316 315 315 314
305 302 301 303 302 301 298 299 304 298 302 309 308 313 309 313 314 316 317 315 316 318 316 315 315 317 317 317 318 319 321 321 321 322 323 319 318 317 316 315 312 311 313 313 312
303 301 301 302 302 298 301 303 297 297 301 308 309 312 310 308 315 314 315 316 318 318 319 317 315 315 317 319 318 319 317 319 319 319 319 314 319 318 312 311 309 311 312 312 313
302 302 301 302 301 301 303 302 302 300 304 305 307 309 313 308 315 313 314 316 315 315 317 319 319 316 316 318 319 318 316 317 319 318 315 310 319 315 312 310 312 313 312 312 311
301 302 302 301 298 302 302 300 300 303 304 305 307 310 310 313 314 314 313 313 312 313 314 317 316 314 314 315 318 318 318 313 312 307 312 310 310 310 309 309 311 311 312 312 311
302 302 301 299 301 302 296 303 302 302 301 302 310 308 312 312 314 314 313 311 313 312 312 313 317 314 313 314 315 316 312 314 313 310 309 310 311 311 311 310 309 309 311 312 312
301 301 300 301 301 301 290 296 301 303 302 304 308 310 310 311 312 314 313 312 312 312 311 311 313 315 314 315 316 315 314 314 312 311 312 312 309 308 309 309 308 309 311 312 312
300 294 300 301 298 298 299 298 299 303 305 306 304 306 307 307 311 311 314 314 311 311 312 312 312 315 315 311 311 314 314 314 310 310 308 310 310 308 307 306 309 309 311 312 312
300 300 300 299 294 297 297 299 299 301 303 306 307 305 302 306 309 308 310 310 311 310 311 311 312 315 314 312 312 314 313 313 312 308 311 311 310 307 307 307 309 310 311 311 312
299 291 298 298 299 299 299 300 301 301 302 303 306 306 306 307 304 307 307 310 310 311 311 311 311 311 312 312 312 314 313 313 312 306 309 309 310 309 307 308 309 310 312 312 312
299 296 297 294 293 296 299 299 300 299 300 302 303 303 306 305 307 307 307 308 309 309 309 308 309 308 309 309 310 312 313 312 313 312 310 312 311 311 310 311 312 312 311 311 311
298 295 295 295 298 298 298 297 300 299 299 302 301 301 301 303 306 307 305 307 308 308 308 308 310 307 307 308 306 307 309 311 311 312 312 312 311 309 312 312 311 311 311 311 311
299 300 300 296 294 292 295 297 298 298 298 300 300 300 301 301 301 303 302 304 305 307 307 308 307 303 305 303 302 299 305 308 309 310 310 311 310 309 308 309 310 311 311 311 310
Wind_Speed
12 11 10 10 10 10 10 11 8 8 10 12 10 13 12 10 19 22 21 20 24 31 35 28 20 19 18 20 14 5 1 5 4 4 4 13 5 9 13 14 7 4 11 17 28
12 11 10 10 9 9 8 11 11 7 8 11 9 10 11 11 12 21 25 23 26 23 21 24 18 16 10 15 7 6 3 6 1 2 5 13 13 13 8 13 8 15 16 33 28
11 12 11 11 10 8 7 9 14 11 8 11 9 9 12 11 12 18 14 19 27 22 17 18 16 10 9 8 11 6 4 4 6 6 6 16 12 8 22 3 13 30 34 31 28
12 12 11 12 11 10 8 7 11 17 12 10 11 12 10 20 7 10 14 19 18 23 22 8 9 6 3 3 12 5 7 3 5 3 0 13 16 9 14 6 19 23 29 27 30
14 13 11 11 10 10 8 7 8 14 16 12 11 9 8 10 5 8 17 19 17 17 20 11 6 5 5 5 13 5 3 4 7 5 5 16 10 8 7 11 24 26 25 27 28
16 14 13 11 10 10 8 7 6 12 15 14 12 10 12 6 9 12 16 21 19 18 14 10 10 13 6 3 6 16 8 6 5 3 2 8 5 11 9 23 26 26 24 25 25
19 15 14 12 11 10 9 8 7 9 15 14 14 11 15 9 9 13 18 24 18 17 15 12 8 10 5 3 6 11 4 2 4 4 1 16 3 4 20 27 27 23 23 22 21
20 19 15 14 11 11 10 9 9 9 13 13 14 10 8 11 15 20 21 26 17 15 10 11 8 12 2 2 5 4 1 3 3 4 2 3 6 5 21 25 23 22 22 20 19
22 20 17 14 11 10 10 9 9 10 10 12 12 11 5 12 18 21 26 24 18 18 12 8 8 6 5 3 2 4 6 6 0 5 3 2 2 3 17 21 21 21 23 22 20
21 20 17 15 11 10 8 7 7 8 6 9 12 7 9 15 19 20 25 23 21 20 14 7 5 2 3 4 7 5 2 2 6 4 0 5 4 2 8 13 13 19 24 23 21
21 21 19 16 11 9 5 1 2 3 10 9 7 19 9 15 15 22 28 21 23 19 7 9 3 6 8 11 10 1 1 4 1 4 5 5 5 5 6 7 9 13 20 19 17
21 21 19 15 11 9 5 5 2 0 5 13 23 21 24 17 14 19 25 17 13 11 10 6 8 8 10 13 11 10 6 0 4 3 3 4 2 2 6 5 6 8 9 11 11
22 21 19 15 12 8 5 5 4 5 4 9 15 15 22 17 15 30 32 18 13 14 18 13 12 13 9 11 7 6 12 3 3 5 3 2 5 2 4 7 8 6 7 6 4
21 21 19 16 9 6 3 1 4 2 1 4 3 9 16 12 6 28 38 9 4 17 17 6 6 15 9 12 12 5 5 7 1 3 2 3 2 4 5 8 9 16 14 7 9
21 23 19 11 9 7 4 4 1 5 1 0 7 8 12 8 17 20 33 8 6 7 6 5 10 12 10 10 12 6 13 6 5 4 2 3 3 6 2 2 4 8 7 13 11
23 21 20 14 10 5 3 5 10 4 6 3 3 9 5 8 10 19 22 9 5 5 5 3 3 4 5 7 0 9 12 8 5 3 1 5 4 4 5 8 5 9 16 13 9
24 20 16 12 6 3 7 11 3 4 2 3 2 7 13 5 9 16 16 7 5 7 6 5 3 3 6 13 3 14 7 3 3 1 4 2 3 7 4 4 9 14 17 15 13
25 19 14 11 6 6 11 3 2 4 2 3 2 9 8 10 7 11 16 9 8 3 4 5 4 3 1 5 9 7 4 5 6 4 3 2 5 5 1 7 19 20 20 17 20
22 14 12 7 6 7 3 1 3 2 5 7 4 5 2 6 3 10 17 16 5 7 5 5 3 2 4 3 13 6 4 3 6 3 3 3 4 7 6 6 15 19 18 20 22
16 12 8 5 7 1 3 2 2 2 2 2 4 1 4 10 10 9 13 5 3 3 5 4 6 1 2 4 3 4 8 2 2 4 2 3 3 4 5 7 6 9 15 21 22
9 4 3 4 5 2 2 4 3 5 4 3 6 3 1 3 5 8 10 3 2 4 5 5 4 3 5 3 6 4 3 2 5 3 4 3 4 2 2 4 9 14 18 24 23
2 3 4 2 5 1 2 3 4 6 3 2 1 5 4 4 4 5 7 2 5 7 6 1 5 5 2 3 3 2 5 3 4 4 1 3 4 1 3 5 17 12 14 18 18
4 3 4 2 3 0 4 3 4 4 4 4 5 4 3 1 3 3 6 3 1 3 6 5 3 6 3 3 3 3 3 5 4 3 4 5 4 2 7 14 14 16 14 15 13
4 2 2 3 4 4 1 4 4 3 2 7 1 4 3 6 5 3 4 4 10 8 13 8 4 4 7 4 5 4 4 4 4 3 3 3 3 2 4 6 8 9 8 5 5
3 2 2 0 2 1 2 2 3 6 8 10 4 4 3 6 4 5 5 3 11 9 6 5 4 4 5 4 4 4 7 7 5 4 5 3 5 4 5 3 9 13 14 10 9
3 5 3 1 3 2 2 4 3 3 5 6 6 13 14 6 5 6 4 5 4 6 4 4 4 1 5 7 7 3 3 4 3 3 3 2 6 7 18 18 19 21 18 16 13
4 5 1 4 4 3 1 1 3 3 6 9 3 7 14 9 15 10 20 18 8 5 4 4 5 3 1 4 4 4 6 5 3 3 6 6 9 4 5 7 10 10 12 14 11
Wind_Direction
276 266 265 264 274 267 240 237 253 259 250 253 247 246 241 244 221 215 225 213 218 247 251 260 276 293 267 290 272 268 12 262 248 200 222 155 114 87 135 130 101 104 164 168 161
266 266 266 258 268 273 258 230 235 256 262 247 247 237 231 222 236 230 232 230 222 248 242 251 278 292 268 278 270 181 178 243 161 328 208 167 139 126 126 116 87 104 128 150 160
259 260 265 262 265 279 278 249 238 247 256 244 235 228 213 227 223 240 238 232 230 226 238 256 267 280 251 275 266 213 209 287 284 346 185 152 136 130 139 166 166 145 148 158 163
264 254 257 262 261 270 291 278 246 244 245 253 237 222 188 198 217 211 221 223 224 222 223 233 233 217 232 238 301 243 234 216 294 334 30 154 148 154 167 194 178 172 162 164 167
263 258 254 260 258 259 272 292 249 247 235 245 247 240 231 221 237 206 190 201 202 197 197 220 224 193 209 223 324 245 264 248 262 285 295 158 156 142 122 151 170 165 166 167 168
254 262 255 262 266 267 266 280 271 247 240 235 250 236 237 230 221 189 179 190 194 175 170 175 191 180 199 226 356 310 282 214 243 221 297 138 121 136 145 147 154 161 165 167 171
247 252 256 256 265 266 268 276 269 254 244 228 243 246 244 235 213 191 168 176 175 157 158 177 173 162 153 101 277 292 305 182 187 200 109 119 48 138 153 156 157 162 164 171 177
241 242 248 248 256 259 270 276 272 253 242 236 231 246 227 244 233 182 163 155 155 157 152 155 155 183 151 332 346 282 279 156 274 230 131 99 208 184 172 155 160 166 171 176 183
234 235 237 241 245 245 266 274 271 247 252 235 231 244 233 207 214 197 186 174 171 156 155 161 156 148 123 63 71 324 195 171 155 305 142 115 187 143 173 160 168 176 179 180 182
228 225 226 232 235 239 261 278 261 248 262 241 248 275 194 206 209 216 190 188 175 174 165 182 181 53 99 145 203 188 305 129 134 307 261 112 157 132 140 170 172 186 182 178 178
222 218 214 221 221 225 242 248 221 246 224 207 181 227 288 201 200 197 194 181 189 178 157 191 156 182 177 189 226 6 194 86 350 2 30 171 157 180 170 148 123 120 151 149 151
210 208 203 206 209 215 208 164 266 261 290 237 234 259 268 209 169 194 189 179 192 176 156 162 202 201 168 180 196 193 182 282 268 26 73 32 107 173 169 172 152 132 136 145 148
198 196 192 191 196 200 203 200 267 291 300 278 231 270 249 201 181 187 184 197 183 163 188 178 179 185 154 145 144 171 202 161 23 332 51 12 335 247 248 179 184 211 194 186 148
187 184 179 180 179 168 135 198 268 214 316 228 206 253 210 212 194 196 195 165 173 193 175 189 178 175 161 176 149 142 157 116 152 55 95 36 267 268 235 222 195 195 214 208 237
175 173 168 159 137 142 151 226 156 164 335 159 168 208 196 194 143 186 186 172 168 159 149 187 157 156 172 177 158 149 136 126 173 129 102 200 163 271 47 123 213 208 187 150 153
164 159 158 129 129 136 245 188 148 62 238 234 267 180 158 233 172 148 172 169 146 87 72 120 134 113 153 92 240 127 100 54 34 54 142 250 140 280 182 195 129 139 137 125 120
145 149 160 161 129 145 138 148 62 149 206 236 307 201 172 228 143 161 173 175 126 139 154 110 33 318 130 97 313 123 123 84 24 14 209 290 163 246 218 117 156 152 134 124 121
144 147 140 140 143 154 160 62 188 232 165 131 226 281 191 204 131 163 155 157 159 121 98 129 158 194 153 136 168 176 116 155 165 179 222 7 211 258 300 167 152 144 131 127 128
142 141 126 127 131 142 124 118 252 15 341 325 332 210 174 168 132 147 182 177 143 173 126 133 81 100 65 95 138 183 174 189 104 39 105 208 269 323 110 61 120 131 141 142 141
137 124 109 124 142 134 87 274 299 338 254 237 250 266 168 169 166 147 164 189 161 128 120 127 109 356 80 79 23 199 141 104 355 128 177 265 202 220 155 178 170 150 158 158 154
126 94 105 123 156 60 147 260 285 251 227 295 328 25 118 118 156 148 150 346 128 109 100 121 98 122 116 191 174 143 173 125 113 123 144 149 254 267 332 227 178 176 165 164 163
123 64 107 51 55 343 261 285 318 263 151 251 93 2 7 112 149 173 146 230 134 140 110 122 109 116 135 278 276 226 158 125 127 234 173 134 258 64 332 67 129 117 156 159 167
85 104 145 18 117 245 282 279 248 318 11 24 33 48 337 71 98 70 101 360 255 84 152 175 116 118 98 16 328 194 179 120 98 72 189 136 248 37 104 86 104 110 127 133 141
110 56 48 63 97 124 267 304 315 346 311 4 344 214 43 20 44 119 108 67 85 91 87 94 81 145 179 119 125 154 167 146 111 105 172 205 164 96 97 110 106 119 129 164 204
80 116 152 266 338 53 129 309 331 7 355 14 351 7 77 24 32 31 72 135 52 52 59 89 95 89 79 74 99 124 170 174 161 161 148 227 196 200 166 217 289 306 297 270 248
103 139 116 106 299 86 25 303 59 349 29 358 59 40 54 75 26 53 40 39 108 47 66 11 117 63 57 34 58 88 78 103 117 163 151 234 284 228 276 286 300 303 295 286 269
85 105 118 341 339 79 289 353 1 118 33 39 32 51 53 40 70 96 64 70 73 111 126 114 153 107 33 355 47 356 212 177 181 183 156 209 235 248 282 290 285 306 290 283 178